User: anonymous   Login
Location: Unspecified
(0.0000°N, 0.0000°E)
Time: 02:08:22
(UTC+00:00)
Language:

STARLINK-30520 - Orbit

View from above orbital plane
View from above orbital plane
View from above satellite
View from above satellite

Ground track
Ground track

The orbit is defined by the following mean orbital elements,

1 58010U          26145.66668980 +.00000000 +00000-0 -16858-3 0 00006
2 58010  43.0021 352.2467 0001308 253.3460 328.3428 15.27578918    03
Epoch (UTC): 25 May 2026 16:00:01
Eccentricity: 0.0001308
inclination: 43.0021°
perigee height: 482 km
apogee height: 484 km
right ascension of ascending node: 352.2467°
argument of perigee: 253.3460°
revolutions per day: 15.27578918
mean anomaly at epoch: 328.3428°

The dashed part of the orbit path shows where the satellite is in the earth's shadow,  

DLR